Dewpoint
73 72 72 73 73 72 73 73 73 71 71 71 71 71 71 71 72 71 70 71 71 70 70 73 75 73 68 72 76 75 73 74 73 68 74 71 67 65 63 64 69 68
72 72 74 73 74 74 75 74 72 72 72 73 71 72 72 71 70 70 71 70 71 70 71 70 72 73 72 70 74 72 75 72 72 65 67 70 69 64 62 62 62 67
73 72 71 71 71 72 72 72 72 72 71 71 71 72 70 70 70 72 72 71 69 68 70 71 70 72 71 72 75 73 71 75 72 67 70 70 67 67 67 61 62 63
72 72 71 71 71 70 71 72 72 72 71 71 70 70 71 70 70 70 72 73 71 71 70 70 69 68 70 71 74 72 71 74 71 73 72 72 70 64 63 66 64 63
71 72 72 72 71 71 71 71 71 70 69 70 69 71 73 73 72 69 70 71 73 71 72 71 71 69 71 73 73 72 71 70 71 74 74 73 72 69 64 66 71 65
71 72 72 71 72 71 70 69 70 69 69 69 70 70 71 71 70 71 71 69 69 69 68 68 69 68 69 71 72 71 70 67 68 72 71 72 68 65 63 65 67 65
70 70 72 70 70 70 69 70 70 70 68 69 71 70 70 70 70 70 70 74 72 69 67 70 72 71 69 71 72 73 72 73 72 73 71 70 71 69 65 66 70 72
72 72 74 73 68 69 69 70 73 73 71 70 70 70 70 69 70 69 69 69 69 68 69 67 70 72 69 69 70 71 70 68 68 71 74 70 70 71 70 66 68 71
74 73 73 73 73 72 70 71 71 73 71 70 69 69 70 70 70 69 72 70 69 70 70 68 70 68 69 69 70 70 70 68 67 68 69 68 68 70 68 69 67 69
73 73 74 74 72 72 71 70 71 72 73 72 68 68 68 70 69 69 71 73 71 70 70 70 69 68 67 68 68 69 69 70 70 70 66 66 66 66 65 67 66 68
72 74 73 74 73 72 72 72 71 73 75 73 70 69 69 69 70 70 72 72 69 68 69 70 69 69 70 68 67 67 68 68 70 71 69 68 66 67 68 69 69 67
73 73 72 72 73 73 71 72 71 71 71 71 70 70 71 71 71 70 70 71 71 70 69 70 71 71 71 70 68 67 67 68 69 70 68 68 66 65 68 70 69 72
72 72 73 72 71 71 70 69 70 68 67 69 71 73 71 70 69 70 72 71 71 70 70 72 70 71 74 74 72 69 69 68 65 67 67 67 67 67 68 72 73 73
70 70 71 71 72 73 73 71 71 70 70 70 72 72 71 70 69 71 70 70 70 72 73 72 72 72 74 75 73 69 68 66 66 66 65 66 66 68 67 68 72 73
72 71 73 72 71 72 71 71 72 71 72 71 72 72 71 73 74 73 72 72 71 71 72 71 71 72 71 70 70 70 70 67 68 67 67 67 68 66 67 68 73 74
71 71 72 72 72 72 72 72 71 73 73 72 73 73 73 74 74 74 73 72 71 69 70 72 73 72 73 74 73 73 71 69 67 69 70 70 70 69 67 70 72 72
69 68 70 70 71 71 71 71 71 71 71 72 73 73 74 74 73 72 71 73 73 72 71 72 71 73 73 69 69 70 72 71 70 71 71 72 70 72 73 73 73 74
69 69 68 69 69 70 70 71 70 70 70 70 70 70 72 71 72 71 71 71 71 71 72 73 73 74 69 68 68 69 71 72 69 70 70 74 73 71 70 71 73 72
68 67 68 68 68 68 69 69 69 69 69 69 68 69 71 72 73 72 72 72 72 72 73 72 72 73 68 68 68 68 68 72 70 71 72 76 72 71 72 73 75 74
66 67 67 67 67 68 68 68 68 69 69 70 69 69 70 69 69 71 71 73 73 73 73 73 73 74 68 67 67 67 67 70 70 70 73 72 72 72 72 75 76 75
66 66 66 66 67 67 67 67 68 68 69 70 70 70 70 69 69 68 69 71 71 72 72 71 73 68 66 66 66 66 66 71 69 69 72 70 71 74 74 73 74 74
66 66 66 66 66 67 67 67 67 67 67 69 69 70 70 69 69 69 69 69 71 71 72 71 72 65 64 65 64 64 67 70 69 71 72 71 73 74 74 74 74 74
65 65 65 65 66 65 66 66 66 67 67 68 68 68 68 68 68 68 70 70 71 71 71 72 70 62 60 60 61 62 68 70 71 74 73 73 73 73 74 74 74 74
65 65 65 65 65 65 65 66 66 67 67 68 67 67 67 68 68 68 69 70 71 71 71 71 66 62 58 58 58 61 68 71 74 73 72 72 72 72 73 74 74 74
65 65 65 65 64 65 65 65 66 66 67 68 67 67 67 68 67 67 68 70 71 71 72 69 67 63 57 57 57 59 66 70 72 72 71 72 71 72 72 73 74 74
65 65 65 65 65 65 65 65 66 67 66 66 67 66 66 66 68 67 68 68 68 68 67 66 66 65 61 56 56 57 61 68 70 70 70 70 71 71 71 72 73 74